STARLINK-30785, 58191

Orbit data source: Space-Track

STARLINK-30785, 58191 is a payload satellite owned by SpaceX/Seattle (US) in LEO that was launched on Mon, 30 Oct 2023 UTC via an FALCON 9 launch vehicle from the Air Force Eastern Test Range (AFETR). Payload-class satellites include a variety of spacecraft equipped with specific instruments for various scientific and technological missions. These include communications satellites like Starlink; space stations such as the ISS; scientific satellites like the Hubble; Earth observation satellites from companies like Planet Labs, Umbra, and HawkEye 360; GPS; miniature CubeSats for education and research; and military/defense satellites.

Loading next visibility...
Identifier
58191, 2023-167S
Orbit
LEO
Country
Flag of USUS
Related business
Manufacturer
SpaceX/Seattle
Mission
Operational Commercial Communications
Bus & Motor
STARLINK V2M, Unknown motor
Mass
730 kg wet, ~700 kg dry
Launch date (UTC)
2023-10-30 (3 years ago)
Launch vehicle
FALCON 9
Launch site
Air Force Eastern Test Range (AFETR)
Object type
Payload
Rocket body
Debris
Shape & HBR
Box + 2 Pan, 17.7 m
Radar Cross Section
33.884 m², Large (>1 m²)

Expand to show TLE details & history
Last TLE update: 2 days ago

TLE from 2 days ago
0 STARLINK-30785
1 58191U 23167S   26171.34716008 -.00000428  00000-0 -60174-5 0  9998
2 58191  42.9999 283.7771 0001283 280.6783  79.3924 15.27579209146687
Epoch: 2026-06-20T08:19Z
TLE epoch observation values (Epoch: 2026-06-20T08:19:54.630Z)
Latitude
-0.00005°
Longitude
-109.76366°
Altitude
482.665 km
Speed
7.626 km/s
True Right ascension
18h 55m 06s
True Declination
0° 00' 00"
Sunlit
Object was in full shadow at epoch
Visualization orbit readout
Latitude
Unknown
Longitude
Unknown
Altitude
Unknown
Speed
Unknown
Apparent Right ascension
Unknown
Apparent Declination
Unknown
Sunlit
N/A
Visualization observer readout
Local Sidereal Time
23:07:47
Azimuth
Unknown
Elevation
Unknown
Doppler factor
Unknown
Orbital elements
Apogee altitude
485.877 km
Perigee altitude
484.116 km
Semi-major axis
6,863.134 km
Eccentricity
0.00013
Inclination
42.9999°
RAAN
283.7771°
Arg. of periapsis
280.6783°
True anomaly
79.40685°
Mean anomaly
79.3924°
Eccentric anomaly
79.39963°
Mean motion
3.81733 °/min
Orbital period
94.31 mins
BSTAR
-0.0000060174
Loading maneuver chart data...
Computing Atmospheric mass density...
Loading historical data...
Loading historical data...
Loading historical data...
Loading historical data...
Loading historical data...
Loading historical data...
Loading historical data...

Documentation

Showing up to 5 results
|